{"data":{"norad_id":67984,"epoch":"2026-05-25T00:46:06.756096Z","epoch_age_seconds":79131,"freshness":"FRESH","line1":"1 67984U 26038Z   26145.03202264  .00019735  00000+0  61189-3 0  9992","line2":"2 67984  97.2826 155.1353 0002036  95.5591 264.5884 15.33450359 14941","mean_motion":15.33450359,"eccentricity":0.0002036,"inclination_deg":97.2826,"raan_deg":155.1353,"arg_perigee_deg":95.5591,"mean_anomaly_deg":264.5884,"bstar":0.00061189,"rev_number":1494,"period_min":93.905876479696,"perigee_km":464.13385987373,"apogee_km":466.92059994815,"semimajor_km":6843.6642299109,"source":"CELESTRAK","updated_at":"2026-05-25T13:38:21.778021Z"}}